Data No.,UTC Date,UTC Time,Latitude,Longitude,Course(deg),Temp(degC),Sal(psu)
21,2014/3/5,23:57:00,01-11.8100N,119-11.4800E,6,28.36,33.6502
22,2014/3/5,23:58:00,01-12.0000N,119-11.5000E,6,28.355,33.6546
23,2014/3/5,23:59:00,01-12.1900N,119-11.5200E,7,28.368,33.6569
24,2014/3/6,0:00:00,01-12.3800N,119-11.5500E,7,28.373,33.6566
25,2014/3/6,0:01:00,01-12.5800N,119-11.5800E,8,28.373,33.6592
26,2014/3/6,0:02:00,01-12.7900N,119-11.6100E,8,28.371,33.6675
27,2014/3/6,0:03:00,01-12.9800N,119-11.6300E,6,28.368,33.6744
28,2014/3/6,0:04:00,01-13.1700N,119-11.6500E,6,28.37,33.6833
29,2014/3/6,0:05:00,01-13.3700N,119-11.6800E,7,28.366,33.6908
30,2014/3/6,0:06:00,01-13.5700N,119-11.7000E,6,28.364,33.7007
31,2014/3/6,0:07:00,01-13.7600N,119-11.7200E,5,28.384,33.7066
32,2014/3/6,0:08:00,01-13.9600N,119-11.7400E,5,28.387,33.713
33,2014/3/6,0:09:00,01-14.1600N,119-11.7600E,6,28.393,33.7203
34,2014/3/6,0:10:00,01-14.3600N,119-11.7800E,7,28.401,33.7274
35,2014/3/6,0:11:00,01-14.5500N,119-11.8100E,7,28.42,33.7322
36,2014/3/6,0:12:00,01-14.7500N,119-11.8300E,6,28.438,33.7426
37,2014/3/6,0:13:00,01-14.9400N,119-11.8600E,6,28.451,33.7498
38,2014/3/6,0:14:00,01-15.1400N,119-11.8800E,6,28.446,33.7569
39,2014/3/6,0:15:00,01-15.3400N,119-11.8900E,4,28.451,33.7597
40,2014/3/6,0:16:00,01-15.5400N,119-11.9100E,4,28.45,33.7642
41,2014/3/6,0:17:00,01-15.7400N,119-11.9300E,5,28.437,33.7738
42,2014/3/6,0:18:00,01-15.9400N,119-11.9500E,7,28.429,33.7784
43,2014/3/6,0:19:00,01-16.1400N,119-11.9800E,7,28.421,33.7778
44,2014/3/6,0:20:00,01-16.3400N,119-12.0000E,7,28.41,33.7783
45,2014/3/6,0:21:00,01-16.5500N,119-12.0300E,6,28.39,33.7812
46,2014/3/6,0:22:00,01-16.7500N,119-12.0500E,5,28.401,33.7831
47,2014/3/6,0:23:00,01-16.9600N,119-12.0700E,5,28.403,33.7802
48,2014/3/6,0:24:00,01-17.1600N,119-12.0900E,5,28.393,33.7762
49,2014/3/6,0:25:00,01-17.3700N,119-12.1100E,6,28.391,33.7728
50,2014/3/6,0:26:00,01-17.5900N,119-12.1400E,8,28.384,33.7727
51,2014/3/6,0:27:00,01-17.8000N,119-12.1700E,9,28.378,33.7751
52,2014/3/6,0:28:00,01-18.0100N,119-12.2100E,9,28.376,33.7745
53,2014/3/6,0:29:00,01-18.2100N,119-12.2400E,9,28.376,33.774
54,2014/3/6,0:30:00,01-18.4200N,119-12.2700E,8,28.384,33.773
55,2014/3/6,0:31:00,01-18.6200N,119-12.3000E,8,28.389,33.7749
56,2014/3/6,0:32:00,01-18.8200N,119-12.3300E,8,28.384,33.7796
57,2014/3/6,0:33:00,01-19.0300N,119-12.3600E,9,28.372,33.7784
58,2014/3/6,0:34:00,01-19.2300N,119-12.4000E,9,28.358,33.7757
59,2014/3/6,0:35:00,01-19.4400N,119-12.4300E,9,28.354,33.7723
60,2014/3/6,0:36:00,01-19.6400N,119-12.4600E,9,28.394,33.7761
61,2014/3/6,0:37:00,01-19.8400N,119-12.4900E,9,28.416,33.7765
62,2014/3/6,0:38:00,01-20.0300N,119-12.5300E,9,28.426,33.7752
63,2014/3/6,0:39:00,01-20.2300N,119-12.5600E,9,28.431,33.7136
64,2014/3/6,0:40:00,01-20.4300N,119-12.5900E,8,28.425,33.7036
65,2014/3/6,0:41:00,01-20.6200N,119-12.6200E,8,28.424,33.7019
66,2014/3/6,0:42:00,01-20.8100N,119-12.6500E,8,28.427,33.698
67,2014/3/6,0:43:00,01-21.0000N,119-12.6700E,7,28.432,33.7039
68,2014/3/6,0:44:00,01-21.2000N,119-12.7000E,6,28.419,33.7159
69,2014/3/6,0:45:00,01-21.3800N,119-12.7200E,6,28.41,33.7296
70,2014/3/6,0:46:00,01-21.5800N,119-12.7400E,6,28.404,33.7393
71,2014/3/6,0:47:00,01-21.7700N,119-12.7600E,6,28.396,33.7429
72,2014/3/6,0:48:00,01-21.9600N,119-12.7800E,7,28.382,33.7471
73,2014/3/6,0:49:00,01-22.1600N,119-12.8100E,8,28.364,33.7518
74,2014/3/6,0:50:00,01-22.3500N,119-12.8400E,7,28.339,33.7556
75,2014/3/6,0:51:00,01-22.5400N,119-12.8600E,6,28.309,33.7604
76,2014/3/6,0:52:00,01-22.7300N,119-12.8800E,5,28.308,33.7654
77,2014/3/6,0:53:00,01-22.9100N,119-12.9000E,5,28.354,33.7672
78,2014/3/6,0:54:00,01-23.1000N,119-12.9200E,6,28.359,33.7792
79,2014/3/6,0:55:00,01-23.2900N,119-12.9400E,6,28.345,33.7854
80,2014/3/6,0:56:00,01-23.4800N,119-12.9600E,6,28.337,33.7887
81,2014/3/6,0:57:00,01-23.6600N,119-12.9800E,5,28.327,33.7918
82,2014/3/6,0:58:00,01-23.8500N,119-12.9900E,5,28.303,33.7938
83,2014/3/6,0:59:00,01-24.0400N,119-13.0100E,5,28.29,33.7956
84,2014/3/6,1:00:00,01-24.2200N,119-13.0300E,4,28.31,33.7976
85,2014/3/6,1:01:00,01-24.4100N,119-13.0400E,3,28.303,33.8079
86,2014/3/6,1:02:00,01-24.5900N,119-13.0500E,5,28.303,33.8162
87,2014/3/6,1:03:00,01-24.7700N,119-13.0700E,6,28.288,33.82
88,2014/3/6,1:04:00,01-24.9600N,119-13.0900E,6,28.278,33.8234
89,2014/3/6,1:05:00,01-25.1400N,119-13.1100E,4,28.252,33.827
90,2014/3/6,1:06:00,01-25.3200N,119-13.1200E,3,28.243,33.8302
91,2014/3/6,1:07:00,01-25.5100N,119-13.1300E,3,28.341,33.8313
92,2014/3/6,1:08:00,01-25.6900N,119-13.1400E,3,28.356,33.8303
93,2014/3/6,1:09:00,01-25.8700N,119-13.1500E,2,28.4,33.827
94,2014/3/6,1:10:00,01-26.0500N,119-13.1600E,3,28.405,33.8251
95,2014/3/6,1:11:00,01-26.2300N,119-13.1700E,6,28.432,33.8235
96,2014/3/6,1:12:00,01-26.4100N,119-13.2000E,8,28.47,33.8198
97,2014/3/6,1:13:00,01-26.5900N,119-13.2200E,7,28.487,33.8192
98,2014/3/6,1:14:00,01-26.7700N,119-13.2400E,6,28.537,33.8209
99,2014/3/6,1:15:00,01-26.9500N,119-13.2600E,6,28.546,33.821
100,2014/3/6,1:16:00,01-27.1300N,119-13.2800E,6,28.544,33.819
101,2014/3/6,1:17:00,01-27.3100N,119-13.3000E,6,28.538,33.8203
102,2014/3/6,1:18:00,01-27.4800N,119-13.3200E,6,28.536,33.8166
103,2014/3/6,1:19:00,01-27.6600N,119-13.3400E,5,28.534,33.8188
104,2014/3/6,1:20:00,01-27.8200N,119-13.3500E,3,28.52,33.8319
105,2014/3/6,1:21:00,01-28.0000N,119-13.3600E,4,28.507,33.8297
106,2014/3/6,1:22:00,01-28.1700N,119-13.3800E,6,28.491,33.8392
107,2014/3/6,1:23:00,01-28.3500N,119-13.4000E,7,28.458,33.8399
108,2014/3/6,1:24:00,01-28.5200N,119-13.4200E,7,28.448,33.8436
109,2014/3/6,1:25:00,01-28.6900N,119-13.4500E,6,28.445,33.8501
110,2014/3/6,1:26:00,01-28.8600N,119-13.4600E,6,28.443,33.8548
111,2014/3/6,1:27:00,01-29.0400N,119-13.4800E,5,28.438,33.858
112,2014/3/6,1:28:00,01-29.2100N,119-13.5000E,5,28.431,33.8592
113,2014/3/6,1:29:00,01-29.3800N,119-13.5200E,6,28.425,33.8601
114,2014/3/6,1:30:00,01-29.5600N,119-13.5500E,9,28.417,33.8611
115,2014/3/6,1:31:00,01-29.7400N,119-13.5800E,10,28.408,33.8643
116,2014/3/6,1:32:00,01-29.9200N,119-13.6100E,9,28.402,33.8685
117,2014/3/6,1:33:00,01-30.0900N,119-13.6400E,8,28.398,33.8694
118,2014/3/6,1:34:00,01-30.2700N,119-13.6600E,8,28.376,33.8707
119,2014/3/6,1:35:00,01-30.4500N,119-13.6900E,8,28.373,33.8737
120,2014/3/6,1:36:00,01-30.6200N,119-13.7100E,7,28.37,33.8768
121,2014/3/6,1:37:00,01-30.8000N,119-13.7300E,7,28.36,33.8794
122,2014/3/6,1:38:00,01-31.0000N,119-13.7600E,8,28.346,33.8842
123,2014/3/6,1:39:00,01-31.1800N,119-13.7900E,11,28.331,33.8861
124,2014/3/6,1:40:00,01-31.3600N,119-13.8300E,12,28.316,33.8873
125,2014/3/6,1:41:00,01-31.5400N,119-13.8700E,11,28.319,33.8883
126,2014/3/6,1:42:00,01-31.7200N,119-13.9000E,8,28.32,33.8901
127,2014/3/6,1:43:00,01-31.9100N,119-13.9200E,7,28.299,33.8918
128,2014/3/6,1:44:00,01-32.0900N,119-13.9500E,8,28.292,33.8925
129,2014/3/6,1:45:00,01-32.2700N,119-13.9800E,8,28.312,33.8947
130,2014/3/6,1:46:00,01-32.4600N,119-14.0100E,9,28.315,33.8983
131,2014/3/6,1:47:00,01-32.6400N,119-14.0400E,8,28.326,33.8973
132,2014/3/6,1:48:00,01-32.8300N,119-14.0700E,8,28.335,33.8967
133,2014/3/6,1:49:00,01-33.0100N,119-14.0800E,2,28.36,33.897
134,2014/3/6,1:50:00,01-33.2000N,119-14.0800E,359,28.358,33.8964
135,2014/3/6,1:51:00,01-33.3900N,119-14.0800E,0,28.342,33.8956
136,2014/3/6,1:52:00,01-33.5700N,119-14.0800E,0,28.339,33.896
137,2014/3/6,1:53:00,01-33.7600N,119-14.0900E,359,28.349,33.8962
138,2014/3/6,1:54:00,01-33.9500N,119-14.0800E,357,28.349,33.8965
139,2014/3/6,1:55:00,01-34.1300N,119-14.0700E,356,28.341,33.8958
140,2014/3/6,1:56:00,01-34.3200N,119-14.0600E,358,28.322,33.895
141,2014/3/6,1:57:00,01-34.5100N,119-14.0600E,1,28.316,33.8952
142,2014/3/6,1:58:00,01-34.7000N,119-14.0700E,1,28.302,33.8963
143,2014/3/6,1:59:00,01-34.8900N,119-14.0700E,1,28.298,33.8956
144,2014/3/6,2:00:00,01-35.0700N,119-14.0700E,358,28.299,33.8953
145,2014/3/6,2:01:00,01-35.2600N,119-14.0600E,354,28.285,33.8935
146,2014/3/6,2:02:00,01-35.4400N,119-14.0400E,352,28.268,33.8925
147,2014/3/6,2:03:00,01-35.6400N,119-14.0100E,352,28.252,33.8912
148,2014/3/6,2:04:00,01-35.8300N,119-13.9900E,353,28.268,33.8892
149,2014/3/6,2:05:00,01-36.0200N,119-13.9800E,356,28.282,33.8895
150,2014/3/6,2:06:00,01-36.2000N,119-13.9700E,356,28.293,33.8909
151,2014/3/6,2:07:00,01-36.3900N,119-13.9500E,355,28.317,33.8931
152,2014/3/6,2:08:00,01-36.5700N,119-13.9400E,354,28.322,33.8934
153,2014/3/6,2:09:00,01-36.7500N,119-13.9200E,353,28.32,33.8963
154,2014/3/6,2:10:00,01-36.9300N,119-13.9000E,353,28.337,33.8972
155,2014/3/6,2:11:00,01-37.1100N,119-13.8800E,353,28.353,33.9031
156,2014/3/6,2:12:00,01-37.2900N,119-13.8600E,353,28.361,33.9137
157,2014/3/6,2:13:00,01-37.4600N,119-13.8300E,352,28.383,33.9164
158,2014/3/6,2:14:00,01-37.6400N,119-13.8100E,351,28.379,33.9216
159,2014/3/6,2:15:00,01-37.8100N,119-13.7800E,352,28.355,33.9234
160,2014/3/6,2:16:00,01-37.9800N,119-13.7700E,354,28.37,33.9248
161,2014/3/6,2:17:00,01-38.1500N,119-13.7500E,354,28.385,33.9261
162,2014/3/6,2:18:00,01-38.3200N,119-13.7300E,354,28.386,33.9231
163,2014/3/6,2:19:00,01-38.5000N,119-13.7200E,354,28.377,33.9214
164,2014/3/6,2:20:00,01-38.6700N,119-13.7000E,354,28.366,33.9213
165,2014/3/6,2:21:00,01-38.8400N,119-13.6800E,354,28.347,33.9217
166,2014/3/6,2:22:00,01-39.0100N,119-13.6700E,356,28.328,33.9228
167,2014/3/6,2:23:00,01-39.1800N,119-13.6600E,359,28.312,33.9228
168,2014/3/6,2:24:00,01-39.3500N,119-13.6700E,1,28.301,33.9255
169,2014/3/6,2:25:00,01-39.5300N,119-13.6800E,5,28.279,33.9287
170,2014/3/6,2:26:00,01-39.7000N,119-13.7100E,12,28.34,33.9293
171,2014/3/6,2:27:00,01-39.8700N,119-13.7600E,17,28.547,33.9315
172,2014/3/6,2:28:00,01-40.0500N,119-13.8200E,17,28.562,33.9119
173,2014/3/6,2:29:00,01-40.2300N,119-13.8700E,15,28.58,33.9037
174,2014/3/6,2:30:00,01-40.4000N,119-13.9100E,12,28.588,33.9038
175,2014/3/6,2:31:00,01-40.5700N,119-13.9500E,11,28.592,33.9026
176,2014/3/6,2:32:00,01-40.7400N,119-13.9800E,11,28.578,33.9028
177,2014/3/6,2:33:00,01-40.9200N,119-14.0200E,14,28.605,33.9037
178,2014/3/6,2:34:00,01-41.0900N,119-14.0700E,14,28.604,33.9033
179,2014/3/6,2:35:00,01-41.2600N,119-14.1100E,15,28.605,33.9025
180,2014/3/6,2:36:00,01-41.4300N,119-14.1600E,13,28.641,33.9026
181,2014/3/6,2:37:00,01-41.6000N,119-14.1900E,10,28.667,33.9037
182,2014/3/6,2:38:00,01-41.7600N,119-14.2200E,9,28.654,33.9023
183,2014/3/6,2:39:00,01-41.9400N,119-14.2500E,12,28.654,33.9026
184,2014/3/6,2:40:00,01-42.1100N,119-14.3000E,15,28.661,33.9022
185,2014/3/6,2:41:00,01-42.2700N,119-14.3500E,17,28.653,33.9047
186,2014/3/6,2:42:00,01-42.4400N,119-14.4000E,16,28.658,33.9084
187,2014/3/6,2:43:00,01-42.6100N,119-14.4500E,16,28.654,33.911
188,2014/3/6,2:44:00,01-42.7700N,119-14.4900E,14,28.662,33.9111
189,2014/3/6,2:45:00,01-42.9400N,119-14.5300E,11,28.669,33.9127
190,2014/3/6,2:46:00,01-43.1100N,119-14.5600E,10,28.655,33.913
191,2014/3/6,2:47:00,01-43.2700N,119-14.5900E,12,28.643,33.9096
192,2014/3/6,2:48:00,01-43.4400N,119-14.6300E,12,28.63,33.9079
193,2014/3/6,2:49:00,01-43.6100N,119-14.6700E,12,28.613,33.9063
194,2014/3/6,2:50:00,01-43.7700N,119-14.7100E,13,28.596,33.9042
195,2014/3/6,2:51:00,01-43.9400N,119-14.7500E,13,28.579,33.902
196,2014/3/6,2:52:00,01-44.1100N,119-14.7900E,13,28.571,33.9007
197,2014/3/6,2:53:00,01-44.2800N,119-14.8300E,14,28.546,33.9011
198,2014/3/6,2:54:00,01-44.4500N,119-14.8800E,14,28.55,33.9009
199,2014/3/6,2:55:00,01-44.6200N,119-14.9300E,19,28.584,33.901
200,2014/3/6,2:56:00,01-44.7800N,119-14.9900E,19,28.567,33.9027
201,2014/3/6,2:57:00,01-44.9500N,119-15.0400E,16,28.579,33.9035
202,2014/3/6,2:58:00,01-45.1200N,119-15.0900E,15,28.565,33.9044
203,2014/3/6,2:59:00,01-45.2900N,119-15.1400E,16,28.564,33.9058
204,2014/3/6,3:00:00,01-45.4500N,119-15.1900E,17,28.569,33.9051
205,2014/3/6,3:01:00,01-45.6200N,119-15.2400E,16,28.565,33.907
206,2014/3/6,3:02:00,01-45.7900N,119-15.2900E,15,28.558,33.906
207,2014/3/6,3:03:00,01-45.9600N,119-15.3300E,13,28.566,33.9079
208,2014/3/6,3:04:00,01-46.1300N,119-15.3800E,14,28.536,33.9091
209,2014/3/6,3:05:00,01-46.3000N,119-15.4200E,17,28.544,33.9083
210,2014/3/6,3:06:00,01-46.4600N,119-15.4700E,16,28.54,33.9118
211,2014/3/6,3:07:00,01-46.6300N,119-15.5200E,15,28.553,33.9136
212,2014/3/6,3:08:00,01-46.7900N,119-15.5600E,13,28.577,33.9174
213,2014/3/6,3:09:00,01-46.9500N,119-15.6000E,10,28.603,33.924
214,2014/3/6,3:10:00,01-47.1100N,119-15.6200E,8,28.626,33.9275
215,2014/3/6,3:11:00,01-47.2800N,119-15.6500E,8,28.62,33.9306
216,2014/3/6,3:12:00,01-47.4400N,119-15.6800E,12,28.623,33.9334
217,2014/3/6,3:13:00,01-47.6000N,119-15.7200E,13,28.611,33.9335
218,2014/3/6,3:14:00,01-47.7700N,119-15.7600E,13,28.604,33.934
219,2014/3/6,3:15:00,01-47.9300N,119-15.7900E,11,28.599,33.9328
220,2014/3/6,3:16:00,01-48.0900N,119-15.8300E,10,28.623,33.9369
221,2014/3/6,3:17:00,01-48.2600N,119-15.8600E,9,28.658,33.9454
222,2014/3/6,3:18:00,01-48.4200N,119-15.8800E,7,28.67,33.9501
223,2014/3/6,3:19:00,01-48.5800N,119-15.9000E,9,28.644,33.9519
224,2014/3/6,3:20:00,01-48.7400N,119-15.9300E,11,28.645,33.9526
225,2014/3/6,3:21:00,01-48.9000N,119-15.9700E,12,28.69,33.9517
226,2014/3/6,3:22:00,01-49.0600N,119-16.0000E,11,28.729,33.9555
227,2014/3/6,3:23:00,01-49.2200N,119-16.0300E,11,28.749,33.9623
228,2014/3/6,3:24:00,01-49.3700N,119-16.0700E,12,28.729,33.9706
229,2014/3/6,3:25:00,01-49.5300N,119-16.1100E,15,28.72,33.9753
230,2014/3/6,3:26:00,01-49.6900N,119-16.1500E,14,28.747,33.9778
231,2014/3/6,3:27:00,01-49.8400N,119-16.1800E,12,28.805,33.9853
232,2014/3/6,3:28:00,01-49.9900N,119-16.2100E,10,28.839,33.9978
233,2014/3/6,3:29:00,01-50.1400N,119-16.2400E,10,28.836,34.0091
234,2014/3/6,3:30:00,01-50.2900N,119-16.2600E,10,28.841,34.0135
235,2014/3/6,3:31:00,01-50.4400N,119-16.2900E,9,28.846,34.0169
236,2014/3/6,3:32:00,01-50.6000N,119-16.3200E,10,28.805,34.0205
237,2014/3/6,3:33:00,01-50.7500N,119-16.3500E,12,28.79,34.0236
238,2014/3/6,3:34:00,01-50.9100N,119-16.3900E,12,28.832,34.0296
239,2014/3/6,3:35:00,01-51.0700N,119-16.4200E,12,28.857,34.0247
240,2014/3/6,3:36:00,01-51.2200N,119-16.4500E,11,28.888,34.0239
241,2014/3/6,3:37:00,01-51.3800N,119-16.4900E,10,28.888,34.0285
242,2014/3/6,3:38:00,01-51.5400N,119-16.5200E,11,28.889,34.0335
243,2014/3/6,3:39:00,01-51.7000N,119-16.5500E,11,28.888,34.0362
244,2014/3/6,3:40:00,01-51.8600N,119-16.5800E,12,28.885,34.0386
245,2014/3/6,3:41:00,01-52.0200N,119-16.6200E,12,28.897,34.04
246,2014/3/6,3:42:00,01-52.1900N,119-16.6500E,10,28.936,34.0448
247,2014/3/6,3:43:00,01-52.3500N,119-16.6800E,9,28.955,34.0535
248,2014/3/6,3:44:00,01-52.5100N,119-16.7100E,9,28.954,34.0637
249,2014/3/6,3:45:00,01-52.6700N,119-16.7400E,9,28.958,34.0694
250,2014/3/6,3:46:00,01-52.8300N,119-16.7600E,8,28.966,34.0741
251,2014/3/6,3:47:00,01-52.9900N,119-16.7800E,6,28.946,34.0771
252,2014/3/6,3:48:00,01-53.1500N,119-16.8000E,6,28.937,34.0766
253,2014/3/6,3:49:00,01-53.3100N,119-16.8100E,6,28.941,34.076
254,2014/3/6,3:50:00,01-53.4600N,119-16.8300E,5,28.952,34.0775
255,2014/3/6,3:51:00,01-53.6200N,119-16.8400E,4,28.964,34.0808
256,2014/3/6,3:52:00,01-53.7800N,119-16.8500E,4,28.957,34.0846
257,2014/3/6,3:53:00,01-53.9400N,119-16.8700E,6,28.952,34.0879
258,2014/3/6,3:54:00,01-54.1000N,119-16.8900E,7,28.964,34.0932
259,2014/3/6,3:55:00,01-54.2600N,119-16.9100E,7,28.975,34.0982
260,2014/3/6,3:56:00,01-54.4300N,119-16.9300E,6,28.971,34.1004
261,2014/3/6,3:57:00,01-54.5900N,119-16.9500E,6,28.957,34.1025
262,2014/3/6,3:58:00,01-54.7600N,119-16.9600E,6,28.979,34.1299
263,2014/3/6,3:59:00,01-54.9300N,119-16.9800E,6,28.984,34.1313
264,2014/3/6,4:00:00,01-55.1000N,119-17.0000E,4,28.984,34.1191
265,2014/3/6,4:01:00,01-55.2600N,119-17.0100E,4,28.967,34.121
266,2014/3/6,4:02:00,01-55.4300N,119-17.0300E,5,28.969,34.119
267,2014/3/6,4:03:00,01-55.6000N,119-17.0400E,4,28.973,34.1135
268,2014/3/6,4:04:00,01-55.7800N,119-17.0600E,5,28.959,34.1127
269,2014/3/6,4:05:00,01-55.9600N,119-17.0800E,8,28.965,34.114
270,2014/3/6,4:06:00,01-56.1300N,119-17.1100E,8,28.974,34.1085
271,2014/3/6,4:07:00,01-56.3200N,119-17.1300E,6,28.976,34.1153
272,2014/3/6,4:08:00,01-56.4900N,119-17.1400E,3,28.965,34.1215
273,2014/3/6,4:09:00,01-56.6600N,119-17.1500E,2,28.97,34.1232
274,2014/3/6,4:10:00,01-56.8400N,119-17.1600E,2,28.955,34.1259
275,2014/3/6,4:11:00,01-57.0000N,119-17.1700E,3,28.943,34.1338
276,2014/3/6,4:12:00,01-57.1800N,119-17.1800E,3,28.945,34.137
277,2014/3/6,4:13:00,01-57.3500N,119-17.2000E,3,28.953,34.1394
278,2014/3/6,4:14:00,01-57.5100N,119-17.2100E,4,28.973,34.148
279,2014/3/6,4:15:00,01-57.6900N,119-17.2200E,3,28.951,34.1603
280,2014/3/6,4:16:00,01-57.8600N,119-17.2300E,2,28.928,34.1891
281,2014/3/6,4:17:00,01-58.0400N,119-17.2400E,2,28.91,34.2032
282,2014/3/6,4:18:00,01-58.2200N,119-17.2500E,3,28.901,34.203
283,2014/3/6,4:19:00,01-58.3900N,119-17.2600E,4,28.898,34.2024
284,2014/3/6,4:20:00,01-58.5700N,119-17.2700E,2,28.912,34.2031
285,2014/3/6,4:21:00,01-58.7500N,119-17.2800E,0,28.916,34.2015
286,2014/3/6,4:22:00,01-58.9300N,119-17.2800E,0,28.907,34.2028
287,2014/3/6,4:23:00,01-59.1100N,119-17.2800E,2,28.915,34.2021
288,2014/3/6,4:24:00,01-59.2900N,119-17.2900E,2,28.919,34.2032
289,2014/3/6,4:25:00,01-59.4700N,119-17.3000E,0,28.929,34.2018
290,2014/3/6,4:26:00,01-59.6400N,119-17.3000E,359,28.938,34.1989
291,2014/3/6,4:27:00,01-59.8200N,119-17.2900E,357,28.939,34.1995
292,2014/3/6,4:28:00,01-59.9900N,119-17.2900E,358,28.931,34.1996
293,2014/3/6,4:29:00,02-00.1700N,119-17.2800E,358,28.926,34.2002
294,2014/3/6,4:30:00,02-00.3500N,119-17.2800E,358,28.922,34.2005
295,2014/3/6,4:31:00,02-00.5400N,119-17.2800E,0,28.919,34.201
296,2014/3/6,4:32:00,02-00.7200N,119-17.2800E,0,28.922,34.2
297,2014/3/6,4:33:00,02-00.9000N,119-17.2800E,0,28.926,34.1992
298,2014/3/6,4:34:00,02-01.0800N,119-17.2800E,1,28.912,34.1971
299,2014/3/6,4:35:00,02-01.2500N,119-17.2900E,1,28.919,34.1947
300,2014/3/6,4:36:00,02-01.4300N,119-17.2900E,0,28.929,34.1932
301,2014/3/6,4:37:00,02-01.6200N,119-17.3000E,0,28.926,34.1916
302,2014/3/6,4:38:00,02-01.8000N,119-17.3000E,0,28.927,34.1913
303,2014/3/6,4:39:00,02-01.9800N,119-17.3000E,0,28.92,34.1889
304,2014/3/6,4:40:00,02-02.1600N,119-17.3000E,2,28.914,34.1874
305,2014/3/6,4:41:00,02-02.3500N,119-17.3100E,2,28.916,34.1853
306,2014/3/6,4:42:00,02-02.5200N,119-17.3200E,3,28.913,34.1832
307,2014/3/6,4:43:00,02-02.7100N,119-17.3300E,2,28.916,34.1822
308,2014/3/6,4:44:00,02-02.8900N,119-17.3400E,1,28.92,34.1819
309,2014/3/6,4:45:00,02-03.0700N,119-17.3400E,359,28.921,34.1802
310,2014/3/6,4:46:00,02-03.2500N,119-17.3300E,359,28.908,34.1785
311,2014/3/6,4:47:00,02-03.4300N,119-17.3400E,2,28.907,34.1762
312,2014/3/6,4:48:00,02-03.6100N,119-17.3500E,4,28.895,34.1742
313,2014/3/6,4:49:00,02-03.7900N,119-17.3700E,5,28.886,34.1736
314,2014/3/6,4:50:00,02-03.9700N,119-17.3900E,6,28.874,34.1723
315,2014/3/6,4:51:00,02-04.1500N,119-17.4100E,6,28.886,34.1704
316,2014/3/6,4:52:00,02-04.3300N,119-17.4200E,4,28.886,34.168
317,2014/3/6,4:53:00,02-04.5100N,119-17.4300E,4,28.87,34.1645
318,2014/3/6,4:54:00,02-04.7000N,119-17.4500E,6,28.867,34.1612
319,2014/3/6,4:55:00,02-04.8900N,119-17.4800E,6,28.863,34.1595
320,2014/3/6,4:56:00,02-05.0700N,119-17.5000E,6,28.885,34.1584
321,2014/3/6,4:57:00,02-05.2500N,119-17.5100E,4,28.884,34.1612
322,2014/3/6,4:58:00,02-05.4400N,119-17.5200E,2,28.89,34.1621
323,2014/3/6,4:59:00,02-05.6100N,119-17.5300E,2,28.89,34.1636
324,2014/3/6,5:00:00,02-05.8000N,119-17.5400E,3,28.88,34.1667
325,2014/3/6,5:01:00,02-05.9800N,119-17.5500E,4,28.883,34.1688
326,2014/3/6,5:02:00,02-06.1600N,119-17.5700E,4,28.89,34.1705
327,2014/3/6,5:03:00,02-06.3400N,119-17.5800E,3,28.889,34.1734
328,2014/3/6,5:04:00,02-06.5200N,119-17.5900E,4,28.888,34.1742
329,2014/3/6,5:05:00,02-06.7100N,119-17.6100E,5,28.875,34.1768
330,2014/3/6,5:06:00,02-06.8900N,119-17.6200E,4,28.887,34.1778
331,2014/3/6,5:07:00,02-07.0700N,119-17.6400E,5,28.897,34.1801
332,2014/3/6,5:08:00,02-07.2600N,119-17.6600E,6,28.885,34.1843
333,2014/3/6,5:09:00,02-07.4400N,119-17.6800E,5,28.897,34.188
334,2014/3/6,5:10:00,02-07.6300N,119-17.6900E,4,28.899,34.1897
335,2014/3/6,5:11:00,02-07.8100N,119-17.7100E,3,28.9,34.1912
336,2014/3/6,5:12:00,02-08.0000N,119-17.7200E,3,28.911,34.1937
337,2014/3/6,5:13:00,02-08.1800N,119-17.7300E,3,28.905,34.1977
338,2014/3/6,5:14:00,02-08.3700N,119-17.7400E,4,28.936,34.1996
339,2014/3/6,5:15:00,02-08.5500N,119-17.7600E,3,28.93,34.2038
340,2014/3/6,5:16:00,02-08.7400N,119-17.7700E,1,28.914,34.205
341,2014/3/6,5:17:00,02-08.9200N,119-17.7700E,3,28.887,34.1967
342,2014/3/6,5:18:00,02-09.1100N,119-17.7900E,5,28.888,34.1906
343,2014/3/6,5:19:00,02-09.3000N,119-17.8100E,5,28.89,34.1911
344,2014/3/6,5:20:00,02-09.5100N,119-17.8200E,4,28.892,34.1907
345,2014/3/6,5:21:00,02-09.6900N,119-17.8400E,5,28.893,34.1897
346,2014/3/6,5:22:00,02-09.8800N,119-17.8600E,4,28.888,34.1874
347,2014/3/6,5:23:00,02-10.0800N,119-17.8700E,4,28.891,34.1858
348,2014/3/6,5:24:00,02-10.2700N,119-17.8800E,3,28.888,34.1837
349,2014/3/6,5:25:00,02-10.4600N,119-17.8900E,2,28.888,34.1824
350,2014/3/6,5:26:00,02-10.6500N,119-17.9000E,3,28.887,34.1811
351,2014/3/6,5:27:00,02-10.8400N,119-17.9100E,4,28.893,34.1822
352,2014/3/6,5:28:00,02-11.0300N,119-17.9300E,4,28.885,34.1788
353,2014/3/6,5:29:00,02-11.2200N,119-17.9400E,3,28.892,34.1719
354,2014/3/6,5:30:00,02-11.4100N,119-17.9500E,3,28.889,34.1625
355,2014/3/6,5:31:00,02-11.6000N,119-17.9600E,3,28.889,34.1578
356,2014/3/6,5:32:00,02-11.7900N,119-17.9700E,2,28.891,34.1462
357,2014/3/6,5:33:00,02-11.9900N,119-17.9800E,2,28.884,34.1375
358,2014/3/6,5:34:00,02-12.1800N,119-17.9900E,2,28.882,34.1312
359,2014/3/6,5:35:00,02-12.3800N,119-18.0000E,2,28.899,34.1261
360,2014/3/6,5:36:00,02-12.5800N,119-18.0100E,2,28.904,34.1214
361,2014/3/6,5:37:00,02-12.7700N,119-18.0200E,1,28.916,34.1118
362,2014/3/6,5:38:00,02-12.9700N,119-18.0200E,1,28.921,34.1044
363,2014/3/6,5:39:00,02-13.1700N,119-18.0300E,1,28.932,34.0987
364,2014/3/6,5:40:00,02-13.3600N,119-18.0300E,1,28.973,34.0939
365,2014/3/6,5:41:00,02-13.5600N,119-18.0300E,0,28.999,34.0877
366,2014/3/6,5:42:00,02-13.7500N,119-18.0400E,1,29,34.0786
367,2014/3/6,5:43:00,02-13.9500N,119-18.0400E,0,29.009,34.0754
368,2014/3/6,5:44:00,02-14.1600N,119-18.0400E,1,28.994,34.0734
369,2014/3/6,5:45:00,02-14.3600N,119-18.0500E,3,29.003,34.0723
370,2014/3/6,5:46:00,02-14.5500N,119-18.0600E,3,29.03,34.0713
371,2014/3/6,5:47:00,02-14.7500N,119-18.0800E,4,29.02,34.0696
372,2014/3/6,5:48:00,02-14.9400N,119-18.0900E,5,29.018,34.0686
373,2014/3/6,5:49:00,02-15.1400N,119-18.1100E,5,29.031,34.0697
374,2014/3/6,5:50:00,02-15.3300N,119-18.1300E,5,29.033,34.069
375,2014/3/6,5:51:00,02-15.5200N,119-18.1400E,5,29.044,34.0657
376,2014/3/6,5:52:00,02-15.7200N,119-18.1700E,6,29.054,34.0592
377,2014/3/6,5:53:00,02-15.9100N,119-18.1900E,6,29.053,34.0548
378,2014/3/6,5:54:00,02-16.1100N,119-18.2100E,7,29.043,34.0516
379,2014/3/6,5:55:00,02-16.3000N,119-18.2400E,6,29.051,34.0466
380,2014/3/6,5:56:00,02-16.5000N,119-18.2600E,6,29.048,34.0345
381,2014/3/6,5:57:00,02-16.6900N,119-18.2800E,7,29.016,34.0238
382,2014/3/6,5:58:00,02-16.8800N,119-18.3000E,7,29.024,34.0267
383,2014/3/6,5:59:00,02-17.0800N,119-18.3300E,6,29.049,34.029
384,2014/3/6,6:00:00,02-17.2700N,119-18.3500E,6,29.061,34.0199
385,2014/3/6,6:01:00,02-17.4700N,119-18.3700E,5,29.069,34.0132
386,2014/3/6,6:02:00,02-17.6600N,119-18.3900E,5,29.078,34.0122
387,2014/3/6,6:03:00,02-17.8600N,119-18.4100E,6,29.075,34.0079
388,2014/3/6,6:04:00,02-18.0500N,119-18.4300E,7,29.079,34.0059
389,2014/3/6,6:05:00,02-18.2500N,119-18.4600E,7,29.085,34.0032
390,2014/3/6,6:06:00,02-18.4500N,119-18.4800E,7,29.087,33.9973
391,2014/3/6,6:07:00,02-18.6400N,119-18.5100E,7,29.1,33.9938
392,2014/3/6,6:08:00,02-18.8500N,119-18.5400E,8,29.098,33.9879
393,2014/3/6,6:09:00,02-19.0400N,119-18.5600E,8,29.099,33.986
394,2014/3/6,6:10:00,02-19.2300N,119-18.5900E,8,29.102,33.9873